Weather in Wilmington

United States     34°14′11″N   77°55′40″W
temp.,
°C
wind,
m/s
gust,
m/s
humid.,
%
clouds,
%
prec.,
mm/h
press.,
hPa
HPBL,
m
7 may, fri
fri723:00+16ene24851 0.1 1014137
02:00+14ene25941 0.1 1013126
05:00+13ene129621 0.8 101138
08:00+17sw118295 2.4 101135
11:00+21wsw46530 1.9 10101607
14:00+22wnw710433 2.1 10092383
17:00+19nw711422 0.3 10101573
20:00+16nw39510 0.3 1013617
8 may, sat
sat823:00+12nw12610 0.0 101573
02:00+10w22670 0.0 101651
05:00+9w25630 0.0 101691
08:00+13w410520 0.0 1018343
11:00+20wnw611370 0.0 10171870
14:00+24wnw711285 0.0 10162834
17:00+24wnw610272 0.0 10163016
20:00+17n35456 0.0 1018169
9 may, sun
sun923:00+14ne1145100 0.0 102013
02:00+13nne11465 0.0 102016
05:00+13e114829 0.0 102113
08:00+18sse144872 0.0 1021181
11:00+25ssw463921 0.0 10211646
14:00+27ssw793567 0.0 10191814
17:00+26ssw7114499 0.0 10181436
20:00+22ssw71364100 0.0 1018964
10 may, mon
mon1023:00+21ssw6136865 0.0 1018867
02:00+22ssw61473100 0.0 1016806
05:00+22ssw61477100 0.0 1015936
08:00+24sw5127598 0.0 10171053
11:00+27sw696140 1.0 10161374
14:00+29sw61045100 1.1 10142124
17:00+29ssw6848100 0.0 10131778
20:00+20ssw51192100 1.7 1015321
11 may, tue
tue1123:00+20ssw2793100 0.0 1015189
02:00+19wsw289488 0.1 1014228
05:00+17nw2697100 0.0 1015247
08:00+16nne4790100 0.0 1017521
11:00+14nne5867100 0.0 1020732
14:00+13nne4862100 0.2 1022646
17:00+16nne354214 0.0 1022879
20:00+14nne2248100 0.0 102341